Location: Milton
(43.5183°N, 79.8775°W)
Time: 10:19:48
(UTC+00:00)

COSMOS 2251 DEB - Pass Details

Date: 12 December 2023
Orbit: 708 x 767 km, 74.0° (Epoch: 04 March)

Event Time Altitude Azimuth Distance (km) Brightness Sun altitude
Exits shadow 09:22:38 - 20° (NNE) 2,491 ? -35.4°
Reaches altitude 10° 09:24:37 10° 40° (NE) 2,285 ? -35.0°
Maximum altitude 09:25:14 10° 47° (NE) 2,273 ? -34.9°
Drops below altitude 10° 09:25:52 10° 54° (NE) 2,288 ? -34.8°
Sets 09:30:59 0° 97° (E) 3,223 ? -33.9°
